Location: Nelson
(41.2830°S, 173.2830°E)
Time: 18:58:11
(UTC+13:00)

IGS 5A - Pass Details

Date: 24 January 2019
Orbit: 585 x 588 km, 97.7° (Epoch: 03 October)

Event Time Altitude Azimuth Distance (km) Brightness Sun altitude
Rises 23:35:54 0° 161° (SSE) 2,857 7.5 -23.1°
Reaches altitude 10° 23:38:10 10° 155° (SSE) 1,946 6.5 -23.3°
Enters shadow 23:41:15 37° 119° (ESE) 928 4.4 -23.6°
